Regional Weather Roundup
Issued by NWS

Home | Current Version | Previous Version | Graphics & Text | Print | Product List | Glossary On
Versions: 1 2 3 4 5 6 7 8 9 10 11 12 13 14 15 16 17 18 19 20 21 22 23 24 25 26 27 28 29 30 31 32 33 34 35 36 37 38 39 40 41 42 43 44 45 46 47 48 49 50
000
ASUS43 KOAX 012210
RWRNE

WEATHER ROUNDUP FOR NEBRASKA
NATIONAL WEATHER SERVICE OMAHA NE
500 PM CDT SUN MAY 01 2016

NOTES: SATELLITE DATA IS BEING USED TO AUGMENT CLOUD COVER ABOVE
       12000 FEET.
       "FAIR" INDICATES FEW OR NO CLOUDS BELOW 12,000 FEET WITH NO
       SIGNIFICANT WEATHER AND/OR OBSTRUCTIONS TO VISIBILITY.

  * THESE STATIONS DO NOT REPORT WEATHER SUCH AS RAIN...SNOW OR FOG.

NEZ001>004-019>022-054>056-012300-
NEBRASKA PANHANDLE

CITY           SKY/WX    TMP DP  RH WIND       PRES   REMARKS
SCOTTSBLUFF    PTSUNNY   52  30  43 NE13      30.25F
ALLIANCE       SUNNY     45  29  53 NW6       30.22F
CHADRON        MOSUNNY   57  31  37 N9G18     30.23F
KIMBALL        SUNNY     42  27  57 N8        30.25F
SIDNEY         SUNNY     44  27  51 N15       30.25F
$$

NEZ057>060-069>072-079>082-012300-
SOUTHWEST NEBRASKA

CITY           SKY/WX    TMP DP  RH WIND       PRES   REMARKS
NORTH PLATTE   CLOUDY    52  31  44 N17       30.19S
IMPERIAL       MOSUNNY   50  32  50 N25       30.21S
LEXINGTON      CLOUDY    51  38  61 NE13      30.17S
MCCOOK         CLOUDY    54  34  46 NE18G29   30.17R
OGALLALA       CLOUDY    52  30  44 N14G21    30.24S
$$

NEZ005>010-023>029-035>040-094-012300-
NORTH CENTRAL NEBRASKA

CITY           SKY/WX    TMP DP  RH WIND       PRES   REMARKS
VALENTINE      PTSUNNY   54  30  40 N14G22    30.21F
AINSWORTH      PTSUNNY   55  32  42 N15       30.20F
BROKEN BOW     PTSUNNY   52  35  52 N14G23    30.16F
O`NEILL        PTSUNNY   53  35  50 N12       30.18F
ORD            PTSUNNY   52  40  63 N15       30.15F
THEDFORD       MOSUNNY   54  33  45 N18G25    30.18F
$$

NEZ041-046>049-061>064-073>077-083>087-012300-
SOUTH CENTRAL NEBRASKA

CITY           SKY/WX    TMP DP  RH WIND       PRES   REMARKS
GRAND ISLAND   CLOUDY    48  40  73 N18       30.16F
AURORA         CLOUDY    47  42  85 N14G22    30.15F
HASTINGS       CLOUDY    46  39  76 N18G26    30.15F
HEBRON         CLOUDY    47  40  78 N13G21    30.15R
HOLDREGE       CLOUDY    49  40  71 N20G28    30.16S
KEARNEY *      PTSUNNY   48  37  66 N20G25    30.17R
YORK           CLOUDY    48  41  76 N16       30.15F
$$

NEZ011>018-030>034-042>045-012300-
NORTHEAST NEBRASKA

CITY           SKY/WX    TMP DP  RH WIND       PRES   REMARKS
NORFOLK        PTSUNNY   52  40  63 N14G23    30.14F
ALBION         CLOUDY    50  40  68 N9G18     30.16F
BLAIR          CLOUDY    48  43  82 N9        30.11S
COLUMBUS *     CLOUDY    50  37  62 N17       30.15F
FREMONT        CLOUDY    49  42  77 N9        30.13F
TEKAMAH        CLOUDY    51  44  77 N18       30.12F
WAYNE          CLOUDY    51  41  69 N13       30.16S
$$

NEZ050>053-065>068-078-088>093-012300-
SOUTHEAST NEBRASKA

CITY           SKY/WX    TMP DP  RH WIND       PRES   REMARKS
LINCOLN        CLOUDY    48  41  76 N14       30.15S
OMAHA EPPLEY   CLOUDY    49  43  80 N17       30.11S
BEATRICE       CLOUDY    47  42  82 N18       30.12F
FALLS CITY     CLOUDY    52  44  74 N9        30.08S
NEBRASKA CITY  CLOUDY    48  44  86 N14       30.10S
PLATTSMOUTH    CLOUDY    48  42  79 N10       30.11R
$$

NEZ044-045-051>053-067-012300-
OMAHA AREA

CITY           SKY/WX    TMP DP  RH WIND       PRES   REMARKS
OMAHA EPPLEY   CLOUDY    49  43  80 N17       30.11S
BLAIR          CLOUDY    48  43  82 N9        30.11S
FREMONT        CLOUDY    49  42  77 N9        30.13F
MILLARD        CLOUDY    49  42  78 N7        30.12S
OFFUTT AFB     CLOUDY    49  43  80 N10       30.10S
PLATTSMOUTH    CLOUDY    48  42  79 N10       30.11R
WAHOO          CLOUDY    49  42  77 N17G23    30.13S
$$



USA.gov is the U.S. government's official web portal to all federal, state and local government web resources and services.